{"data":{"norad_id":61914,"intl_designator":"2024-207C","name":"STARLINK-32460","alt_names":[],"object_type":"PAYLOAD","status":"ACTIVE","operator":null,"country":"US","launch_date":"2024-11-11","launch_site_code":"AFETR","launch_vehicle":null,"mission":null,"orbit_class":"UNKNOWN","rcs_meters":null,"size_class":null,"mass_kg":null,"dimensions":null,"purposes":["comms"],"wikipedia_slug":null,"has_3d_model":false,"image_url":null,"decayed_at":null,"tle_current":{"epoch":"2026-09-21T16:43:04.310688Z","epoch_age_seconds":85533,"freshness":"FRESH","line1":"1 61914U 24207C   26264.69657767  .00009922  00000+0  36955-3 0  9991","line2":"2 61914  43.0017 254.3826 0001460 269.3809  90.6875 15.27582875104703","mean_motion":15.27582875,"eccentricity":0.000146,"inclination_deg":43.0017,"raan_deg":254.3826,"arg_perigee_deg":269.3809,"mean_anomaly_deg":90.6875,"bstar":0.00036955,"rev_number":10470,"period_min":94.266571298137,"perigee_km":482.03875535574,"apogee_km":484.04221918202,"semimajor_km":6861.1774872689,"source":"CELESTRAK","updated_at":"2026-09-22T09:00:49.449081Z"}}}